CW9183 Weather Reports


time (UTC)temp
C
wind
direction
speed
KPH
gust
KPH
rain 1hr
cm
rain 24hr
cm
rain mn
cm
humidity
%
barometer
mb
20260504100534 10 0 0.0 0.0 0.00 0.00 0.00 84 1019.0
20260504081554 10 115 0.0 3.2 0.00 0.00 0.00 79 1019.3
20260504081037 10 0 0.0 3.2 0.00 0.00 0.00 79 1019.3
20260504080537 10 0 0.0 3.2 0.00 0.00 0.00 79 1019.4
20260504060106 9 0 0.0 6.4 0.00 0.00 0.00 86 1019.9
20260504050536 7 159 1.6 6.4 0.00 0.00 0.00 86 1019.6
20260504045539 7 0 0.0 6.4 0.00 0.00 0.00 86 1019.6
20260504045035 7 0 1.6 6.4 0.00 0.00 0.00 86 1019.7
20260504044546 7 0 0.0 0.0 0.00 0.00 0.00 85 1019.7
20260504044035 7 0 0.0 0.0 0.00 0.00 0.00 85 1019.7
20260504043536 7 0 0.0 0.0 0.00 0.00 0.00 84 1019.7
20260504043043 7 0 0.0 1.6 0.00 0.00 0.00 83 1019.7
20260504042532 7 0 0.0 3.2 0.00 0.00 0.00 83 1019.8
20260504042035 7 0 0.0 3.2 0.00 0.00 0.00 83 1019.7
20260504041547 7 160 0.0 4.8 0.00 0.00 0.00 83 1019.8
20260504041034 7 160 1.6 6.4 0.00 0.00 0.00 83 1019.7
20260504040534 7 160 1.6 6.4 0.00 0.00 0.00 82 1019.7
20260504040039 7 0 0.0 0.0 0.00 0.00 0.00 81 1019.7
20260504035536 7 0 0.0 0.0 0.00 0.00 0.00 81 1019.7
20260504035036 7 0 0.0 0.0 0.00 0.00 0.00 81 1019.7
20260504034539 7 0 0.0 1.6 0.00 0.00 0.00 81 1019.7
20260504034033 7 0 0.0 4.8 0.00 0.00 0.00 81 1019.7
20260504033535 7 0 0.0 6.4 0.00 0.00 0.00 81 1019.6
20260504033051 7 161 1.6 6.4 0.00 0.00 0.00 80 1019.6
20260504032535 7 163 0.0 3.2 0.00 0.00 0.00 80 1019.7
20260504032038 7 0 0.0 3.2 0.00 0.00 0.00 80 1019.5
20260504031556 7 0 0.0 0.0 0.00 0.00 0.00 79 1019.5
20260504031032 7 0 0.0 0.0 0.00 0.00 0.00 79 1019.4
20260504030533 7 0 0.0 3.2 0.00 0.00 0.00 79 1019.4
20260504030045 7 0 0.0 6.4 0.00 0.00 0.00 79 1019.4
20260504025535 7 163 0.0 6.4 0.00 0.00 0.00 79 1019.5
20260504025035 7 163 3.2 6.4 0.00 0.00 0.00 79 1019.4
20260504024540 7 0 0.0 8.0 0.00 0.00 0.00 78 1019.4
20260504024036 7 0 0.0 8.0 0.00 0.00 0.00 77 1019.5
20260504023532 7 168 1.6 8.0 0.00 0.00 0.00 77 1019.5
20260504023050 7 151 0.0 4.8 0.00 0.00 0.00 77 1019.5
20260504022537 7 151 0.0 3.2 0.00 0.00 0.00 76 1019.4
20260504022034 7 0 0.0 3.2 0.00 0.00 0.00 76 1019.4
20260504021539 7 0 0.0 3.2 0.00 0.00 0.00 77 1019.4
20260504021038 8 150 1.6 8.0 0.00 0.00 0.00 77 1019.4
20260504020536 8 0 0.0 8.0 0.00 0.00 0.00 76 1019.5
20260504020046 8 165 4.8 8.0 0.00 0.00 0.00 75 1019.4
20260504015533 8 169 3.2 8.0 0.00 0.00 0.00 73 1019.4
20260504015036 8 0 0.0 0.0 0.00 0.00 0.00 69 1019.3
20260504014553 8 0 0.0 0.0 0.00 0.00 0.00 68 1019.4
20260504014034 8 0 0.0 0.0 0.00 0.00 0.00 68 1019.3
20260504013536 9 0 0.0 0.0 0.00 0.00 0.00 67 1019.3
20260504013042 9 0 0.0 0.0 0.00 0.00 0.00 67 1019.4
20260504012535 9 0 0.0 0.0 0.00 0.00 0.00 66 1019.4
20260504012037 9 0 0.0 0.0 0.00 0.00 0.00 65 1019.3
20260504011549 10 0 0.0 0.0 0.00 0.00 0.00 64 1019.3
20260504011037 10 0 0.0 0.0 0.00 0.00 0.00 63 1019.3
20260504010533 10 0 0.0 0.0 0.00 0.00 0.00 62 1019.3
20260504010104 10 0 0.0 1.6 0.00 0.00 0.00 62 1019.1
20260504005537 10 0 0.0 1.6 0.00 0.00 0.00 62 1019.3
20260504005037 11 0 0.0 0.0 0.00 0.00 0.00 60 1019.1
20260504004549 11 0 0.0 0.0 0.00 0.00 0.00 59 1019.2
20260504004037 11 0 0.0 0.0 0.00 0.00 0.00 57 1019.0
20260504003537 11 0 0.0 0.0 0.00 0.00 0.00 57 1019.1
20260504003044 12 0 0.0 0.0 0.00 0.00 0.00 56 1019.0
20260504002537 12 0 0.0 1.6 0.00 0.00 0.00 54 1018.7
20260504002036 12 0 0.0 1.6 0.00 0.00 0.00 54 1018.7
20260504001548 12 0 0.0 0.0 0.00 0.00 0.00 53 1018.7
20260504001038 13 0 0.0 3.2 0.00 0.00 0.00 52 1018.8
20260504000535 13 0 0.0 3.2 0.00 0.00 0.00 51 1018.5
20260504000050 13 192 0.0 3.2 0.00 0.00 0.00 49 1018.5
20260503235536 14 0 0.0 0.0 0.00 0.00 0.00 46 1018.5
20260503235037 15 0 0.0 3.2 0.00 0.00 0.00 46 1018.4
20260503234550 15 0 0.0 3.2 0.00 0.00 0.00 46 1018.3
20260503234038 15 0 0.0 0.0 0.00 0.00 0.00 45 1018.2
20260503233535 15 0 0.0 0.0 0.00 0.00 0.00 42 1018.2
20260503233053 16 0 0.0 0.0 0.00 0.00 0.00 40 1018.3
20260503232537 16 0 0.0 3.2 0.00 0.00 0.00 40 1018.3
20260503232037 16 0 0.0 3.2 0.00 0.00 0.00 42 1018.1
20260503231546 16 0 1.6 3.2 0.00 0.00 0.00 38 1018.2
20260503231035 16 315 1.6 6.4 0.00 0.00 0.00 38 1018.1
20260503230536 17 0 0.0 8.0 0.00 0.00 0.00 38 1018.2
20260503230053 17 319 3.2 12.9 0.00 0.00 0.00 38 1018.1
20260503225535 17 306 6.4 12.9 0.00 0.00 0.00 34 1018.1
20260503225036 17 299 6.4 12.9 0.00 0.00 0.00 34 1018.1
20260503224549 17 308 1.6 8.0 0.00 0.00 0.00 34 1018.2
20260503224035 16 309 3.2 16.1 0.00 0.00 0.00 34 1018.2
20260503223536 16 324 8.0 19.3 0.00 0.00 0.00 34 1018.3
20260503223051 17 296 6.4 19.3 0.00 0.00 0.00 32 1018.0
20260503222534 16 342 8.0 19.3 0.00 0.00 0.00 34 1018.1
20260503222036 16 292 4.8 16.1 0.00 0.00 0.00 32 1018.2
20260503221557 16 293 6.4 16.1 0.00 0.00 0.00 32 1018.2
20260503221036 16 318 9.7 22.5 0.00 0.00 0.00 36 1018.4
20260503220536 16 311 6.4 22.5 0.00 0.00 0.00 33 1018.3
20260503215535 16 297 6.4 20.9 0.00 0.00 0.00 37 1018.2
20260503215035 16 306 9.7 20.9 0.00 0.00 0.00 34 1018.2
20260503214545 16 296 6.4 19.3 0.00 0.00 0.00 33 1018.2
20260503214035 16 299 9.7 19.3 0.00 0.00 0.00 35 1018.1
20260503213537 16 299 9.7 19.3 0.00 0.00 0.00 34 1018.1
20260503213049 16 279 8.0 19.3 0.00 0.00 0.00 34 1018.1
20260503212536 16 276 9.7 22.5 0.00 0.00 0.00 35 1018.2
20260503212036 16 296 8.0 22.5 0.00 0.00 0.00 35 1018.2
20260503211544 16 324 11.3 19.3 0.00 0.00 0.00 34 1018.1
20260503211035 16 318 9.7 30.6 0.00 0.00 0.00 34 1018.1
20260503210536 16 291 9.7 30.6 0.00 0.00 0.00 34 1018.0
20260503210055 16 312 17.7 29.0 0.00 0.00 0.00 34 1018.1
20260503205535 16 236 14.5 29.0 0.00 0.00 0.00 33 1018.1
20260503205037 16 316 11.3 25.7 0.00 0.00 0.00 33 1017.9
20260503204601 16 271 12.9 25.7 0.00 0.00 0.00 33 1018.1
20260503204037 16 329 12.9 24.1 0.00 0.00 0.00 33 1017.9
20260503203535 16 355 12.9 22.5 0.00 0.00 0.00 34 1018.0
20260503203053 16 330 9.7 20.9 0.00 0.00 0.00 36 1018.0
20260503202536 16 305 12.9 24.1 0.00 0.00 0.00 34 1018.2
20260503202036 16 320 12.9 30.6 0.00 0.00 0.00 37 1018.1
20260503201549 15 338 12.9 30.6 0.00 0.00 0.00 35 1018.1
20260503201035 15 304 8.0 25.7 0.00 0.00 0.00 37 1018.1
20260503200535 15 312 11.3 25.7 0.00 0.00 0.00 39 1018.3
20260503200047 15 331 11.3 25.7 0.00 0.00 0.00 36 1018.3
20260503195539 15 325 14.5 25.7 0.00 0.00 0.00 36 1018.4
20260503195036 15 312 9.7 29.0 0.00 0.00 0.00 38 1018.5
20260503194603 15 315 16.1 29.0 0.00 0.00 0.00 37 1018.6
20260503194036 15 307 12.9 29.0 0.00 0.00 0.00 38 1018.7
20260503193534 15 311 16.1 29.0 0.00 0.00 0.00 38 1018.9
20260503193044 15 294 11.3 22.5 0.00 0.00 0.00 38 1018.8
20260503192535 15 302 11.3 33.8 0.00 0.00 0.00 38 1019.0
20260503192037 15 269 14.5 33.8 0.00 0.00 0.00 37 1019.2
20260503191645 15 321 19.3 33.8 0.00 0.00 0.00 36 1019.1
20260503191036 15 329 11.3 22.5 0.00 0.00 0.00 40 1019.1
20260503190537 15 292 8.0 19.3 0.00 0.00 0.00 38 1019.1
20260503190057 14 293 6.4 24.1 0.00 0.00 0.00 39 1019.2
20260503185535 14 325 16.1 24.1 0.00 0.00 0.00 38 1019.4
20260503185036 14 306 14.5 24.1 0.00 0.00 0.00 39 1019.3
20260503184544 14 306 14.5 25.7 0.00 0.00 0.00 40 1019.3
20260503184036 14 310 9.7 25.7 0.00 0.00 0.00 40 1019.3
20260503183535 14 310 6.4 20.9 0.00 0.00 0.00 36 1019.2
20260503183052 14 267 8.0 25.7 0.00 0.00 0.00 39 1019.3
20260503182536 14 313 12.9 25.7 0.00 0.00 0.00 39 1019.4
20260503182036 14 318 6.4 29.0 0.00 0.00 0.00 39 1019.5
20260503181543 14 313 9.7 29.0 0.00 0.00 0.00 38 1019.5
20260503181036 14 323 12.9 29.0 0.00 0.00 0.00 42 1019.5
20260503180536 13 311 9.7 29.0 0.00 0.00 0.00 40 1019.6
20260503175538 13 324 11.3 29.0 0.00 0.00 0.00 43 1019.6
20260503175035 13 277 14.5 24.1 0.00 0.00 0.00 40 1019.7
20260503174551 13 309 6.4 27.4 0.00 0.00 0.00 43 1019.8
20260503174039 13 268 14.5 27.4 0.00 0.00 0.00 41 1019.8
20260503173537 13 294 8.0 27.4 0.00 0.00 0.00 43 1019.8
20260503173136 13 296 12.9 30.6 0.00 0.00 0.00 42 1019.8
20260503172538 13 287 9.7 30.6 0.00 0.00 0.00 44 1019.9
20260503172035 12 288 12.9 27.4 0.00 0.00 0.00 45 1020.0
20260503171548 12 309 14.5 25.7 0.00 0.00 0.00 44 1020.0
20260503171036 12 309 9.7 24.1 0.00 0.00 0.00 46 1019.9
20260503170536 12 304 14.5 27.4 0.00 0.00 0.00 44 1020.0
20260503150535 11 306 14.5 37.0 0.00 0.00 0.00 47 1020.4
20260503131035 10 288 11.3 29.0 0.00 0.00 0.00 56 1020.1
20260503130531 10 325 14.5 33.8 0.00 0.00 0.00 57 1020.1
20260503110535 8 302 14.5 20.9 0.00 0.00 0.00 66 1019.1